This is the latest recevied weather packets stored in our database for station/object KD4WLE. If no packets are shown the sender has not sent any weather packets the latest 10 day(s).
| Time | Temp. | Humidity | Pressure | Rain* | Wind** | Luminosity | Snow |
|---|---|---|---|---|---|---|---|
| 1777923230 | 24.44° C | 63% | 1017.1 hPa | 0 mm | - | 243 W/m² | - |
| 1777922930 | 24.44° C | 64% | 1017.1 hPa | 0 mm | - | 496 W/m² | - |
| 1777922627 | 24.44° C | 65% | 1017.1 hPa | 0 mm | - | 389 W/m² | - |
| 1777922325 | 25.56° C | 62% | 1017.4 hPa | 0 mm | - | 338 W/m² | - |
| 1777922023 | 24.44° C | 64% | 1017.3 hPa | 0 mm | - | 838 W/m² | - |
| 1777921718 | 24.44° C | 64% | 1017.4 hPa | 0 mm | - | 309 W/m² | - |
| 1777921414 | 25° C | 62% | 1017.5 hPa | 0 mm | - | 364 W/m² | - |
| 1777921111 | 25° C | 64% | 1017.4 hPa | 0 mm | - | 346 W/m² | - |
| 1777920808 | 25° C | 61% | 1017.6 hPa | 0 mm | - | 432 W/m² | - |
| 1777920504 | 25° C | 62% | 1017.7 hPa | 0 mm | - | 562 W/m² | - |
| 1777920200 | 25° C | 63% | 1017.7 hPa | 0 mm | - | 413 W/m² | - |
| 1777919895 | 25.56° C | 62% | 1017.8 hPa | 0 mm | - | 478 W/m² | - |
| 1777919593 | 25° C | 62% | 1017.9 hPa | 0 mm | - | 618 W/m² | - |
| 1777919290 | 25.56° C | 60% | 1017.8 hPa | 0 mm | - | 466 W/m² | - |
| 1777918988 | 25° C | 64% | 1018 hPa | 0 mm | - | 552 W/m² | - |
| 1777918685 | 25° C | 63% | 1018 hPa | 0 mm | - | 370 W/m² | - |
| 1777918383 | 25.56° C | 63% | 1017.9 hPa | 0 mm | - | 406 W/m² | - |
| 1777918082 | 25° C | 64% | 1017.8 hPa | 0 mm | - | 767 W/m² | - |
| 1777917780 | 25° C | 64% | 1017.9 hPa | 0 mm | - | 932 W/m² | - |
| 1777917477 | 24.44° C | 66% | 1018 hPa | 0 mm | - | 304 W/m² | - |
| 1777917173 | 24.44° C | 66% | 1018.1 hPa | 0 mm | - | 310 W/m² | - |
| 1777916872 | 24.44° C | 66% | 1018.1 hPa | 0 mm | - | 335 W/m² | - |
| 1777916569 | 25.56° C | 65% | 1018.2 hPa | 0 mm | - | 307 W/m² | - |
| 1777916265 | 25.56° C | 63% | 1018.2 hPa | 0 mm | - | 961 W/m² | - |
| 1777915962 | 24.44° C | 64% | 1018.2 hPa | 0 mm | - | 328 W/m² | - |
* Rain latest hour (hover to see other rain measurements)
** Current wind speed in m/s (hover to see current wind gust speed)